Location: Tauranga
(37.6860°S, 176.1670°E)
Time: 13:25:36
(UTC+13:00)

USA 238 DEB - Pass Details

Date: 24 January 2019
Orbit: 1043 x 1169 km, 63.4° (Epoch: 17 February)

Event Time Altitude Azimuth Distance (km) Brightness Sun altitude
Rises 22:12:52 0° 350° (N) 4,032 6.4 -17.0°
Reaches altitude 10° 22:15:42 10° 355° (N) 3,074 5.7 -17.4°
Maximum altitude 22:22:38 46° 66° (ENE) 1,520 4.1 -18.4°
Drops below altitude 10° 22:29:32 10° 136° (SE) 3,050 6.1 -19.4°
Sets 22:32:19 0° 141° (SE) 3,999 6.8 -19.8°
